星链-32463 (STARLINK-32463)

导读 | 豆包AI

STARLINK-32463是美国SpaceX星链(Starlink)项目的低轨通信卫星,于2024年11月27日发射。它属于第二代星链卫星,配备激光通信终端,运行在近地轨道,是星链全球卫星互联网组网的一部分。该卫星旨在为偏远地区、传统网络覆盖盲区提供高速低时延的宽带接入服务,也支持海事、航空等移动场景通信,助力星链实现全球无缝网络覆盖,推进太空互联网建设。

基本信息
目录编号:
62130
目录名称:
STARLINK-32463
国际标识:
2024-222S
轨道中心:
EARTH
卫星名称:
星链-32463
卫星全名:
星链-32463 (STARLINK-32463)
卫星状态:
在轨 (已飞行473 天)
发射日期:
2024-11-27 UTC
国别 :
美国 (US)
星等 :
--
轨道信息
数据来源 国际轨道数据
星历时间: 2026-03-15T03:16:17+0800
11小时前
查看轨道信息
半长轴: 6861.214km
偏心率: 0.0001578
轨道倾角: 43.004°
近地点辐角 276.605°
升交点赤经 107.077°
平近点角 83.462°
近地点: 481.994km
远地点: 484.16km
周期: 94.267分钟
每日圈数: 15.275709
详细信息
固有亮度:
5
最大亮度:
2.5
卫星平台:
Starlink V1.0
覆盖范围:
全球
运营商:
太空探索技术公司
运营商所在国:
美国
制造商(研发单位):
太空探索技术公司
制造商所在国:
美国
使用方式:
暂无
卫星简介
Starlink 计划是 SpaceX 推出的全球卫星互联网项目,通过发射低轨道卫星,为全球尤其是偏远地区提供高速、低延迟的互联网服务。自 2019 年起,Starlink 已部署数千颗卫星,旨在缩小全球数字鸿沟,推动互联网普及。该项目还为军事、航空等行业提供通信支持,带来广泛经济效益。
2D轨道图
3D轨道图
轨道高度分析图
轨道倾角分析图
轨道综合分析图
查看轨道综合分析图